loading
DOY 198 | 2024-07-16T11:34:17Z
Showing default

FLOCK 4Y 1, 55039

Orbit data source: Space-Track

FLOCK 4Y 1, 55039 is a payload satellite owned by Planet (US) in LEO that was launched on Tue, 03 Jan 2023 UTC via a Falcon 9 launch vehicle from the Air Force Eastern Test Range (AFETR). Payloads include a variety of satellites, spacecraft, and rockets equipped with specific instruments for various scientific and technological missions. These include communications satellites like Starlink; space stations such as the ISS; scientific satellites like the Hubble; Earth observation satellites from companies like Planet Labs, Umbra, and HawkEye 360; GPS; miniature CubeSats for education and research; and military/defense satellites.

Loading next visibility...
Loading greatness...
FLOCK 4Y 1 details
NORAD ID55039
COSPAR ID
2023-001AG
Orbit
LEO
Last TLE update14 hours ago
Origin
Flag of USPlanet (US)
ManufacturerPlanet
BusCubesat 3U
MotorUnknown
Mass5.7 kg wet, 5.7 kg dry
Launch date (UTC)
2023-01-03 (2 years ago)
Launch vehicle
Falcon 9
Launch site
Air Force Eastern Test Range (AFETR)
Object type
Payload
Rocket body
Debris
Radar Cross SectionSmall (<0.1 m²)
Predictive object data (real-time)
Latitude-38.33325°
Longitude8.6326°
Altitude468.552 km
Speed7.63 km/s
Apparent Right ascension15h 12m 28s
Apparent Declination-47° 32' 13"
Sunlit
Object is in full shadow
Predictive observer data (real-time)
Local Sidereal Time00:13:01
Azimuth241.482° WSW
Elevation-57.181°
Doppler factor1
Orbital elements
Apogee455.508 km
Perigee444.217 km
Semi-major axis6,828 km
Eccentricity0.0008268
Inclination97.4257°
RAAN261.6394°
Arg. of periapsis64.628°
True anomaly295.49651°
Mean anomaly295.582°
Mean motion3.84683 °/min
BSTAR0.0010457
Period93.58 mins
Definitive object data (Epoch: 2024-07-15T21:40:58.6Z)
Latitude-0.00004°
Longitude2.16524°
Altitude453.598 km
Speed7.642 km/s
True Right ascension17h 26m 33s
True Declination0° 00' 00"
Sunlit
Object was in full shadow at TLE epoch
TLE from 14 hours ago
0 FLOCK 4Y 1
1 55039U 23001AG  24197.90345603  .00038816  00000-0  10457-2 0  9996
2 55039  97.4257 261.6394 0008268  64.6280 295.5820 15.37697659 85292
Epoch: 2024-07-15T21:40Z
No data available

FLOCK 4Y 1 Visibility forecast

Observer location: 39.9160978°, -105.1181434

FLOCK 4Y 1 is not visible in the next 10 days
Span
Click to sort rows by Start time (UTC) header in descending order
Start Az.
Max El. time (UTC)
Max El. Az.
Max El.
End time (UTC)
End Az.